Location: Unspecified
(49.2170°N, 0.0000°E)
Time: 13:59:27
(UTC+00:00)

Tiros 1 despin weight - Pass Details

Date: 30 January 2021
Orbit: 593 x 642 km, 48.2° (Epoch: 06 March)

Event Time Altitude Azimuth Distance (km) Brightness Sun altitude
Rises 15:08:54 0° 272° (W) 2,896 ? 12.8°
Reaches altitude 10° 15:11:14 10° 271° (W) 1,981 ? 12.5°
Maximum altitude 15:15:47 77° 186° (S) 629 ? 12.0°
Drops below altitude 10° 15:20:15 10° 100° (E) 1,949 ? 11.5°
Sets 15:22:32 0° 99° (E) 2,845 ? 11.3°
